TimeEST,TemperatureF,Dew PointF,Humidity,Sea Level PressureIn,VisibilityMPH,Wind Direction,Wind SpeedMPH,Gust SpeedMPH,PrecipitationIn,Events,Conditions,WindDirDegrees,DateUTC
12:53 AM,27.0,24.1,89,30.38,10.0,Calm,Calm,-,N/A,,Clear,0,2012-12-31 05:53:00
1:53 AM,28.0,26.1,92,30.39,10.0,Calm,Calm,-,N/A,,Clear,0,2012-12-31 06:53:00
2:53 AM,28.0,26.1,92,30.40,10.0,Calm,Calm,-,N/A,,Clear,0,2012-12-31 07:53:00
3:53 AM,28.0,26.1,92,30.40,10.0,Calm,Calm,-,N/A,,Clear,0,2012-12-31 08:53:00
4:53 AM,28.0,27.0,96,30.37,10.0,Calm,Calm,-,N/A,,Clear,0,2012-12-31 09:53:00
5:53 AM,28.9,27.0,92,30.39,10.0,Calm,Calm,-,N/A,,Clear,0,2012-12-31 10:53:00
6:53 AM,28.9,27.0,92,30.40,10.0,Calm,Calm,-,N/A,,Clear,0,2012-12-31 11:53:00
7:53 AM,28.0,26.1,92,30.38,10.0,Calm,Calm,-,N/A,,Clear,0,2012-12-31 12:53:00
8:53 AM,30.9,28.0,89,30.39,10.0,Calm,Calm,-,N/A,,Clear,0,2012-12-31 13:53:00
9:53 AM,34.0,28.9,82,30.40,10.0,Calm,Calm,-,N/A,,Clear,0,2012-12-31 14:53:00
10:53 AM,39.0,30.0,70,30.38,10.0,Calm,Calm,-,N/A,,Clear,0,2012-12-31 15:53:00
11:53 AM,45.0,30.0,56,30.35,10.0,Calm,Calm,-,N/A,,Clear,0,2012-12-31 16:53:00
12:53 PM,48.9,28.0,44,30.30,10.0,SW,4.6,-,N/A,,Clear,230,2012-12-31 17:53:00
1:53 PM,48.9,28.0,44,30.25,10.0,Calm,Calm,-,N/A,,Overcast,0,2012-12-31 18:53:00
2:53 PM,50.0,28.0,43,30.24,10.0,Calm,Calm,-,N/A,,Overcast,0,2012-12-31 19:53:00
3:53 PM,50.0,30.0,46,30.23,10.0,Calm,Calm,-,N/A,,Overcast,0,2012-12-31 20:53:00
4:53 PM,48.9,30.0,48,30.21,10.0,Calm,Calm,-,N/A,,Overcast,0,2012-12-31 21:53:00
5:53 PM,48.0,32.0,54,30.20,10.0,Calm,Calm,-,N/A,,Overcast,0,2012-12-31 22:53:00
6:53 PM,46.0,34.0,63,30.20,10.0,Calm,Calm,-,N/A,,Overcast,0,2012-12-31 23:53:00
7:53 PM,46.0,35.1,66,30.20,10.0,Calm,Calm,-,N/A,,Overcast,0,2013-01-01 00:53:00
8:53 PM,46.0,37.0,71,30.18,10.0,Calm,Calm,-,N/A,,Overcast,0,2013-01-01 01:53:00
9:53 PM,46.0,37.0,71,30.16,10.0,Calm,Calm,-,N/A,,Overcast,0,2013-01-01 02:53:00
10:53 PM,45.0,37.0,74,30.14,10.0,ESE,16.1,26.5,N/A,,Partly Cloudy,120,2013-01-01 03:53:00
11:53 PM,43.0,36.0,76,30.12,10.0,Calm,Calm,-,N/A,,Clear,0,2013-01-01 04:53:00